EB2EMZ-5 Weather Reports


time (UTC)temp
C
wind
direction
speed
KPH
gust
KPH
rain 1hr
cm
rain 24hr
cm
rain mn
cm
humidity
%
barometer
mb
20260503190348 33 0.0 0.0 0.00 0.00 0.00 24 996.5
20260503185848 35 0.0 0.0 0.00 0.00 0.00 24 996.4
20260503185348 35 0.0 0.0 0.00 0.00 0.00 24 996.5
20260503184847 36 0.0 0.0 0.00 0.00 0.00 24 996.5
20260503184347 36 0.0 0.0 0.00 0.00 0.00 24 996.3
20260503183847 36 0.0 0.0 0.00 0.00 0.00 24 996.4
20260503183347 36 0.0 0.0 0.00 0.00 0.00 24 996.4
20260503182347 34 0.0 0.0 0.00 0.00 0.00 25 996.3
20260503181847 32 0.0 0.0 0.00 0.00 0.00 26 996.2
20260503181347 32 0.0 0.0 0.00 0.00 0.00 26 996.3
20260503180847 32 0.0 0.0 0.00 0.00 0.00 26 996.2
20260503180347 32 0.0 0.0 0.00 0.00 0.00 26 995.9
20260503175847 32 0.0 0.0 0.00 0.00 0.00 26 995.9
20260503175347 33 0.0 0.0 0.00 0.00 0.00 26 995.8
20260503174847 33 0.0 0.0 0.00 0.00 0.00 26 995.8
20260503174347 33 0.0 0.0 0.00 0.00 0.00 26 995.8
20260503173847 33 0.0 0.0 0.00 0.00 0.00 26 995.8
20260503173347 34 0.0 0.0 0.00 0.00 0.00 26 995.8
20260503172846 34 0.0 0.0 0.00 0.00 0.00 26 995.7
20260503172347 34 0.0 0.0 0.00 0.00 0.00 26 995.6
20260503171847 34 0.0 0.0 0.00 0.00 0.00 26 995.7
20260503171349 34 0.0 0.0 0.00 0.00 0.00 26 995.9
20260503170847 34 0.0 0.0 0.00 0.00 0.00 27 995.9
20260503170347 33 0.0 0.0 0.00 0.00 0.00 27 995.8
20260503150749 46 0.0 0.0 0.00 0.00 0.00 30 1010.8
20260503150249 45 0.0 0.0 0.00 0.00 0.00 30 1010.9
20260503140248 37 0.0 0.0 0.00 0.00 0.00 34 1011.8
20260503130749 30 0.0 0.0 0.00 0.00 0.00 32 1012.7
20260503130249 31 0.0 0.0 0.00 0.00 0.00 31 1012.5
20260503110658 36 0.0 0.0 0.00 0.00 0.00 32 1000.9